ONEWEB-0204, 48225

Orbit data source: Space-Track

ONEWEB-0204, 48225 is a payload satellite owned by One Web (NAA) (UK) in LEO that was launched on Sun, 25 Apr 2021 UTC via a SOYUZ-2-1B launch vehicle from the Vostochny Cosmodrome (VOSTO). Payload-class satellites include a variety of spacecraft equipped with specific instruments for various scientific and technological missions. These include communications satellites like Starlink; space stations such as the ISS; scientific satellites like the Hubble; Earth observation satellites from companies like Planet Labs, Umbra, and HawkEye 360; GPS; miniature CubeSats for education and research; and military/defense satellites.

Loading next visibility...
Identifier
48225, 2021-031R
Orbit
LEO
Country
Flag of UKUK
Related business
Manufacturer
One Web
Mission
Operational Commercial Communications
Bus & Motor
ARROW, Unknown motor
Mass
148 kg wet, ~140 kg dry
Launch date (UTC)
2021-04-25 (5 years ago)
Launch vehicle
SOYUZ-2-1B
Launch site
Vostochny Cosmodrome (VOSTO)
Object type
Payload
Rocket body
Debris
Shape & HBR
Trap Box + 2 Pan, 6.7 m
Radar Cross Section
3.464 m², Large (>1 m²)

Expand to show TLE details & history
Last TLE update: 20 hours ago

TLE from 20 hours ago
0 ONEWEB-0204
1 48225U 21031R   26094.09972657  .00000294  00000-0  75829-3 0  9993
2 48225  87.8946 304.4906 0001384  89.6032 270.5256 13.14501801238526
Epoch: 2026-04-04T02:23Z
TLE epoch observation values (Epoch: 2026-04-04T02:23:36.375Z)
Latitude
-0.00006°
Longitude
76.16468°
Altitude
1,208.678 km
Speed
7.25 km/s
True Right ascension
20h 17m 57s
True Declination
0° 00' 00"
Sunlit
Object was in daylight at epoch
Visualization orbit readout
Latitude
Unknown
Longitude
Unknown
Altitude
Unknown
Speed
Unknown
Apparent Right ascension
Unknown
Apparent Declination
Unknown
Sunlit
N/A
Visualization observer readout
Local Sidereal Time
04:03:46
Azimuth
Unknown
Elevation
Unknown
Doppler factor
Unknown
Orbital elements
Apogee altitude
1,203.957 km
Perigee altitude
1,201.859 km
Semi-major axis
7,581.045 km
Eccentricity
0.00014
Inclination
87.8946°
RAAN
304.4906°
Arg. of periapsis
89.6032°
True anomaly
270.50974°
Mean anomaly
270.5256°
Eccentric anomaly
270.51767°
Mean motion
3.28813 °/min
Orbital period
109.48 mins
BSTAR
0.00075829
Loading maneuver chart data...
Computing Atmospheric mass density...
Loading historical data...
Loading historical data...
Loading historical data...
Loading historical data...
Loading historical data...
Loading historical data...
Loading historical data...

Documentation

Showing up to 5 results
|